Miscellaneous Local Product
Issued by NWS North Platte, NE

Home | Current Version | Previous Version | Text Only | Print | Product List | Glossary On
Versions: 1 2 3 4 5 6 7 8 9 10 11 12 13 14 15 16 17 18 19 20 21 22 23 24 25 26 27 28 29 30 31 32 33 34 35 36 37 38 39 40 41 42 43 44 45 46 47 48 49 50
000
AXUS43 KLBF 201410
MISLBF


WESTERN AND NORTH CENTRAL NEBRASKA HOURLY WEATHER ROUNDUP
NATIONAL WEATHER SERVICE NORTH PLATTE NE
800 AM CST SAT DEC 20 2014

***STATIONS NOT REPORTING VARIABLES SUCH AS SKY/WEATHER OR
PRESSURE ARE PROVIDED BY THE NEBRASKA DEPARTMENT OF
ROADS...RAWS...AND APRS NETWORKS...AND ARE NOT UNDER
NATIONAL WEATHER SERVICE QUALITY CONTROL***

...OBSERVATIONS IN AND NEAR THE EASTERN PANHANDLE OF NEBRASKA...

CITY           SKY/WX    TMP DP  RH WIND       PRES   REMARKS
PINE RIDGE     CLOUDY    22  17  81 CALM      29.93R
CHADRON        CLOUDY    22  17  81 SW9       29.95R WCI  12
ALLIANCE       CLEAR     11   8  88 W5        29.95S WCI   3
SIDNEY         PTCLDY    22  16  78 W9        29.99R WCI  12
WHITECLAY        N/A     20  15  79 E9          N/A  WCI  10
CRESCENT LAKE    N/A     23  16  74 SW6         N/A  WCI  16
LISCO            N/A     14   9  80 SW3         N/A
BIG SPRINGS      N/A     20  17  88 W12         N/A  WCI   8
$$

...OBSERVATIONS IN NORTH CENTRAL NEBRASKA...

CITY           SKY/WX    TMP DP  RH WIND       PRES   REMARKS
VALENTINE      CLEAR     13  10  88 SW8       29.97R WCI   2
THEDFORD       CLEAR     20  17  90 CALM      29.98S
AINSWORTH      PTCLDY    20  16  81 CALM      29.97S
O`NEILL        CLEAR    N/A N/A N/A CALM      30.02S HAZE
BROKEN BOW     CLEAR     18  14  84 CALM      30.00S
BROWNLEE         N/A     21  15  75 S7          N/A  WCI  13
SPRINGVIEW       N/A      7   4  87 CALM        N/A
BREWSTER         N/A     18  17  95 CALM        N/A
ROSE             N/A     25  25 100 MISG        N/A
SARGENT          N/A     14  12  93 CALM        N/A
COMSTOCK         N/A     22  21  93 CALM        N/A
CHAMBERS         N/A     14  12  92 CALM        N/A
EWING            N/A     27  26  97 S3          N/A
$$

...OBSERVATIONS IN SOUTHWEST NEBRASKA AND FAR NORTHEAST COLORADO...

CITY           SKY/WX    TMP DP  RH WIND       PRES   REMARKS
WRAY           FAIR      23  19  85 SW9       30.02R WCI  13
HOLYOKE        FAIR      21  18  86 W12       30.00S WCI   9
IMPERIAL       PTCLDY    20  16  84 W3        30.01R
OGALLALA       CLEAR     13  12  92 W5        30.00S WCI   6
NORTH PLATTE   CLEAR     15  12  88 NW5       30.01S WCI   8
MCCOOK         CLEAR     22  20  92 W5        30.04R WCI  16
LEXINGTON      CLEAR     20  19  93 W3        30.02F FOG
PAXTON           N/A     17  14  89 W3          N/A
BRADY            N/A     17  14  89 CALM        N/A
GOTHENBURG       N/A     20  18  90 CALM        N/A
CALLAWAY         N/A     20  18  92 CALM        N/A
$$

...NORTH PLATTE AREA...

CITY           SKY/WX    TMP DP  RH WIND       PRES   REMARKS
AIRPORT        CLEAR     15  12  88 NW5       30.01S WCI   8
DOWNTOWN         N/A     18  16  91 CALM        N/A
$$

...SOME WEATHER OBSERVATIONS FROM AROUND THE REGION...

CITY           SKY/WX    TMP DP  RH WIND       PRES   REMARKS
DENVER         CLOUDY    31  18  58 S10       29.97F WCI  22
LARAMIE        CLOUDY    30  18  60 SW17G23   29.98F WCI  18
CHEYENNE       CLOUDY    36  17  46 SW14      29.96R WCI  27
SCOTTSBLUFF    MOCLDY    19  15  84 CALM      29.97R
RAPID CITY     CLOUDY    36  23  59 NW8       29.90R WCI  30
PIERRE         FOG       19  15  84 E7        29.95F VSB 1/4 WCI  10
WINNER         FAIR      23  15  71 S3        29.96F
SIOUX FALLS    CLOUDY    31  29  92 S12       30.06S FOG     WCI  22
OMAHA          CLOUDY    32  32 100 S9        30.13R FOG     WCI  24
GRAND ISLAND   FOG       29  28  96 S5        30.06S VSB 1/4 WCI  24
KANSAS CITY    CLOUDY    34  31  88 S12       30.16F WCI  25
WICHITA        MOCLDY    35  33  92 S9        30.17S FOG     WCI  28
HAYS           CLEAR     25  16  68 SW6       30.08S WCI  18
LIBERAL        CLOUDY    27  23  86 SW14      30.11F VSB 1/4 WCI  15
GOODLAND       CLEAR     28  24  85 W9        30.03R WCI  19
$$



USA.gov is the U.S. government's official web portal to all federal, state and local government web resources and services.